Printer-friendly version

IAU Minor Planet Center

Minor Planet Center

MPEC 2006-H51 : 2006 HV50

The following Minor Planet Electronic Circular may be linked-to from your own Web pages, but must not otherwise be redistributed electronically.


Read MPEC 2006-H50 Read MPEC 2006-H52


M.P.E.C. 2006-H51                                Issued 2006 Apr. 27, 23:02 UT

     The Minor Planet Electronic Circulars contain information on unusual
         minor planets and routine data on comets.  They are published
   on behalf of Commission 20 of the International Astronomical Union by the
          Minor Planet Center, Smithsonian Astrophysical Observatory,
                          Cambridge, MA 02138, U.S.A.

                  Supported in part by the Brinson Foundation
                  Supported in part by the TABASGO Foundation
             Prepared using the Tamkin Foundation Computer Network

                              MPC@CFA.HARVARD.EDU
          URL http://cfa-www.harvard.edu/iau/mpc.html  ISSN 1523-6714

                                   2006 HV50

Observations:
     K06H50V* C2006 04 26.29487 12 50 44.49 -07 43 13.5          17.8   EH051704
     K06H50V  C2006 04 26.30509 12 50 30.71 -07 45 48.9          18.3   EH051704
     K06H50V  C2006 04 26.31570 12 50 16.36 -07 48 30.1          17.8   EH051704
     K06H50V  C2006 04 26.32619 12 50 02.23 -07 51 09.0          17.8   EH051704
     K06H50V  C2006 04 26.33666 12 49 48.26 -07 53 47.6          18.0   EH051704
     K06H50V  C2006 04 27.19188 12 32 51.94 -11 14 59.8          18.0   EH051704
     K06H50V  C2006 04 27.19222 12 32 51.52 -11 15 04.9          17.8   EH051704
     K06H50V  C2006 04 27.20424 12 32 37.07 -11 17 41.6          18.0   EH051704
     K06H50V  C2006 04 27.21537 12 32 23.65 -11 20 06.0          18.3   EH051704
     K06H50V  C2006 04 27.21571 12 32 23.24 -11 20 10.8          18.2   EH051704
     K06H50V  C2006 04 27.22658 12 32 10.24 -11 22 31.5          17.9   EH051704
     K06H50V  C2006 04 27.22691 12 32 09.77 -11 22 36.7          18.1   EH051704
     K06H50V  C2006 04 27.23803 12 31 54.52 -11 25 12.2          18.2 R EH051734
     K06H50V  C2006 04 27.23873 12 31 55.71 -11 25 09.1          18.3   EH051704
     K06H50V  C2006 04 27.23907 12 31 55.22 -11 25 14.4          18.4   EH051704
     K06H50V  C2006 04 27.23994 12 31 52.22 -11 25 36.9          18.0 R EH051734
     K06H50V  C2006 04 27.24123 12 31 50.72 -11 25 53.4          18.0 R EH051734
     K06H50V  C2006 04 27.30553 12 30 36.98 -11 39 21.9          18.0 R EH051854
     K06H50V  C2006 04 27.30813 12 30 33.95 -11 39 54.8          17.4 R EH051854
     K06H50V  C2006 04 27.31072 12 30 30.90 -11 40 27.9          17.9 R EH051854
     K06H50V  C2006 04 27.86008 12 20 53.44 -13 32 17.1                 EH051J95
     K06H50V  C2006 04 27.86235 12 20 51.07 -13 32 42.8                 EH051J95
     K06H50V  C2006 04 27.86461 12 20 48.65 -13 33 09.4          18.2 R EH051J95

Observer details:
704 Lincoln Laboratory ETS, New Mexico.  Observers M. Bezpalko, L. Manguso,
    D. Torres, R. Kracke, M. Blythe, H. Love, G. Spitz.  Measurers J. Stuart,
    J. Kommers.  1.0-m f/2.15 reflector + CCD.
734 Farpoint Observatory.  Observer G. Hug.  Measurer D. Tibbets.  0.7-m
    reflector + CCD.
854 Sabino Canyon Observatory, Tucson.  Observer J. E. McGaha.  0.36-m f/10.0
    Schmidt-Cassegrain + CCD.
J95 Great Shefford.  Observer P. Birtwhistle.  0.40-m f/6.0 Schmidt-Cassegrain
    + CCD.

Orbital elements:
2006 HV50                                                Earth MOID = 0.0330 AU
Epoch 2006 Mar. 6.0 TT = JDT 2453800.5                  MPC
M  79.06650              (2000.0)            P               Q
n   1.26035558     Peri.   22.66818     +0.54640198     -0.82185631
a   0.8488038      Node    34.82181     +0.71861222     +0.36117565
e   0.2611231      Incl.   16.40123     +0.43016432     +0.44057276
P   0.78           H   23.6           G   0.15           U   8
Residuals in seconds of arc
060426 704  0.3-  0.3+    060427 704  0.0   0.6+    060427 734  0.0   0.5-
060426 704  0.3+  0.4+    060427 704  0.0   0.2+    060427 854  0.3-  0.5-
060426 704  0.3-  0.3+    060427 704  0.7+  0.7+    060427 854  0.2+  0.4-
060426 704  0.7-  0.2+    060427 704  0.4-  0.2-    060427 854  0.2+  0.7-
060426 704  0.1+  0.2-    060427 734  0.1-  0.6-    060427 J95  0.8-  0.2-
060427 704  0.6+  0.1+    060427 704  1.1+  0.4+    060427 J95  0.2+  0.4+
060427 704  0.4+  0.5-    060427 704  0.2-  0.6-    060427 J95  0.4+  0.0
060427 704  0.6+  0.1-    060427 734  0.5-  0.7-

Ephemeris:
2006 HV50                a,e,i = 0.85, 0.26, 16                  q = 0.6272
Date    TT    R. A. (2000) Decl.     Delta      r     Elong.  Phase     V
2006 04 25    13 20.90   -01 35.3    0.0356   1.040   163.4    16.0    17.3
2006 04 26    12 57.25   -06 23.6    0.0380   1.042   160.1    19.2    17.6
2006 04 27    12 36.50   -10 29.9    0.0411   1.044   155.3    23.8    17.9
2006 04 28    12 18.49   -13 55.7    0.0446   1.046   150.4    28.4    18.2
2006 04 29    12 02.92   -16 46.0    0.0486   1.048   145.9    32.6    18.5
2006 04 30    11 49.48   -19 06.5    0.0528   1.049   141.9    36.4    18.8
2006 05 01    11 37.88   -21 02.9    0.0572   1.051   138.3    39.6    19.1
2006 05 02    11 27.84   -22 39.8    0.0618   1.052   135.1    42.5    19.3
2006 05 03    11 19.13   -24 01.3    0.0666   1.054   132.3    45.0    19.6
2006 05 04    11 11.55   -25 10.3    0.0715   1.055   129.8    47.2    19.8
2006 05 05    11 04.92   -26 09.3    0.0764   1.057   127.6    49.2    20.0
2006 05 06    10 59.11   -27 00.1    0.0814   1.058   125.5    50.9    20.2
2006 05 07    10 54.00   -27 44.4    0.0865   1.059   123.7    52.4    20.3
2006 05 08    10 49.50   -28 23.3    0.0916   1.061   121.9    53.8    20.5
2006 05 09    10 45.51   -28 57.6    0.0968   1.062   120.4    55.1    20.7
2006 05 10    10 41.99   -29 28.3    0.102    1.063   118.9    56.3    20.8
2006 05 11    10 38.86   -29 55.7    0.107    1.064   117.5    57.3    21.0
2006 05 12    10 36.08   -30 20.6    0.112    1.065   116.2    58.3    21.1
2006 05 13    10 33.61   -30 43.1    0.118    1.065   115.0    59.2    21.2
2006 05 14    10 31.41   -31 03.7    0.123    1.066   113.9    60.1    21.3
2006 05 15    10 29.45   -31 22.7    0.128    1.067   112.8    60.9    21.4
2006 05 16    10 27.72   -31 40.2    0.133    1.067   111.7    61.6    21.6
2006 05 17    10 26.18   -31 56.5    0.138    1.068   110.7    62.3    21.7
2006 05 18    10 24.81   -32 11.7    0.144    1.069   109.8    62.9    21.8
2006 05 19    10 23.61   -32 25.9    0.149    1.069   108.9    63.6    21.9
2006 05 20    10 22.55   -32 39.3    0.154    1.069   108.0    64.2    22.0
2006 05 21    10 21.63   -32 52.0    0.159    1.070   107.1    64.7    22.0
2006 05 22    10 20.83   -33 04.0    0.164    1.070   106.3    65.2    22.1
2006 05 23    10 20.14   -33 15.5    0.169    1.070   105.5    65.8    22.2
2006 05 24    10 19.56   -33 26.5    0.174    1.070   104.7    66.2    22.3
2006 05 25    10 19.07   -33 37.1    0.179    1.070   103.9    66.7    22.4

Gareth V. Williams           (C) Copyright 2006 MPC           M.P.E.C. 2006-H51

Read MPEC 2006-H50 Read MPEC 2006-H52


Our Web policy. Index to the CBAT/MPC/ICQ pages.


Valid HTML 4.01!